Home > Weather > Olongapo > Past weeks

Flag for Philippines Past Weather in Olongapo, Philippines — Yesterday and Last 2 Weeks

Now
90 °F

Partly sunny.


Feels Like: 103 °F
Forecast: 78 / 95 °F
Wind: 8 mph from East

Location: Subic Bay Weather Station

Current Time: Jul 27, 2016 at 11:51:55 AM

Latest Report: Jul 27, 2016 at 11:00 AM


Visibility: N/A

Pressure: 29.80 "Hg

Humidity: 67%

Dew Point: 77 °F

Location of OlongapoLocation

Past Weather in Olongapo — Graph

°F

Olongapo Temperature Yesterday

Maximum temperature yesterday: 90 °F (at 12:00 PM)
Minimum temperature yesterday: 75 °F (at 4:00 AM)
Average temperature yesterday: 83 °F

High & Low Weather Summary for the Past Weeks

 TemperatureHumidityPressure
High93 °F (Jul 20, 2:00 PM)94% (Jul 12, 11:00 PM)29.86 "Hg (Jul 12, 11:00 PM)
Low75 °F (Jul 12, 11:00 PM)52% (Jul 19, 11:00 AM)29.68 "Hg (Jul 24, 2:00 PM)
Average83 °F78%29.79 "Hg
* Reported Jul 12 10:00 AM — Jul 27 10:00 AM, Olongapo, Weather by CustomWeather, © 2016

Note: Actual official high and low records may vary slightly from our data, if they occured in-between our weather recording intervals... More about our weather records

Advertising

Olongapo Weather History for the Previous 24 Hours

Scroll right to see more
 ConditionsComfort  
Time TempWeatherWind HumidityBarometerVisibility
10:00 AM
Wed, Jul 27
90 °FPartly sunny.7 mph67%29.83 "HgN/A
9:00 AM88 °FPartly sunny.7 mph70%29.83 "HgN/A
8:00 AM84 °FPartly sunny.7 mph74%29.83 "HgN/A
7:00 AM81 °FPartly sunny.6 mph84%29.80 "HgN/A
6:00 AM79 °FPartly sunny.3 mph89%29.80 "HgN/A
5:00 AM79 °FPassing clouds.5 mph89%29.80 "HgN/A
4:00 AM79 °FPassing clouds.5 mph89%29.80 "HgN/A
3:00 AM79 °FPassing clouds.3 mph89%29.80 "HgN/A
2:00 AM81 °FPassing clouds.5 mph84%29.80 "HgN/A
1:00 AM81 °FPassing clouds.2 mph89%29.80 "HgN/A
12:00 AM81 °FPassing clouds.3 mph89%29.80 "HgN/A
11:00 PM
Tue, Jul 26
82 °FPassing clouds.No wind84%29.80 "HgN/A
10:00 PM82 °FPassing clouds.No wind84%29.80 "HgN/A
9:00 PM82 °FPassing clouds.1 mph84%29.80 "HgN/A
8:00 PM84 °FPassing clouds.2 mph84%29.80 "HgN/A
7:00 PM86 °FPassing clouds.1 mph75%29.77 "HgN/A
6:00 PM86 °FPartly sunny.2 mph75%29.77 "HgN/A
5:00 PM88 °FPartly sunny.5 mph66%29.74 "HgN/A
4:00 PM88 °FPartly sunny.10 mph75%29.71 "HgN/A
3:00 PM90 °FHot.9 mph63%29.74 "HgN/A
2:00 PM90 °FThunderstorms. Partly sunny.7 mph63%29.74 "HgN/A
1:00 PM90 °FBroken clouds.8 mph67%29.74 "HgN/A
12:00 PM90 °FScattered clouds.9 mph67%29.77 "HgN/A
11:00 AM88 °FScattered clouds.6 mph66%29.80 "HgN/A
Weather by CustomWeather, © 2016

See weather overviewHow to use our weather pages